Miscellaneous Local Product
Issued by NWS Hastings, NE

Home | Current Version | Previous Version | Text Only | Print | Product List | Glossary Off
Versions: 1 2 3 4 5 6 7 8 9 10 11 12 13 14 15 16 17 18 19 20 21 22 23 24 25 26 27 28 29 30 31 32 33 34 35 36 37 38 39 40 41 42 43 44 45 46 47 48 49 50

000
AXUS43 KGID 230502
MISGRI

GID CWA HOURLY WEATHER ROUNDUP
NATIONAL WEATHER SERVICE HASTINGS NE
1200 AM CDT THU APR 23 2015

NOTE: "FAIR" INDICATES FEW OR NO CLOUDS BELOW 12,000 FEET WITH NO
SIGNIFICANT WEATHER AND/OR OBSTRUCTIONS TO VISIBILITY.

...SOUTH CENTRAL NEBRASKA...

CITY           SKY/WX    TMP DP  RH WIND       PRES   REMARKS
GRAND ISLAND   CLEAR     43  27  53 SE7       30.02R
HASTINGS       CLEAR     45  27  49 S7        30.01S
KEARNEY        CLEAR     45  28  53 SE9       30.00S
ORD            CLEAR     45  28  51 SE9       29.97S
YORK           CLEAR     41  27  56 S6        30.03R
AURORA         CLEAR     41  27  58 SE7       30.02R
LEXINGTON      CLEAR     44  32  62 SE7       29.98S
HOLDREGE       CLEAR     43  30  60 SE10      30.00S
HEBRON         CLEAR     41  27  57 S7        30.04S

...NEBRASKA PANHANDLE...

CITY           SKY/WX    TMP DP  RH WIND       PRES   REMARKS
CHADRON        CLEAR     43  35  73 N6        29.85S
ALLIANCE       PTCLDY    45  37  73 SE13      29.85F
SCOTTSBLUFF    PTCLDY    51  41  68 SE7       29.85R
SIDNEY         MOCLDY    50  41  71 SE7       29.88R

...WESTERN AND NORTH CENTRAL NEBRASKA...

CITY           SKY/WX    TMP DP  RH WIND       PRES   REMARKS
VALENTINE      PTCLDY    45  32  60 E8        29.93S
AINSWORTH      CLEAR     41  33  73 E9        29.94S
ONEILL         CLOUDY    45  27  49 E7        29.99S
BROKEN BOW     CLEAR     46  30  53 S12       29.96S
IMPERIAL         N/A    N/A N/A N/A MISG      29.92S
NORTH PLATTE   CLEAR     45  30  55 SE12      29.95R
MCCOOK         CLEAR     45  33  63 SE8       29.96S

...EASTERN NEBRASKA...

CITY           SKY/WX    TMP DP  RH WIND       PRES   REMARKS
NORFOLK        CLEAR     39  25  57 SE6       30.01S WCI  35
SO SIOUX CITY  CLEAR     41  17  38 CALM      30.03R
TEKAMAH        CLEAR     37  27  67 CALM      30.03R
COLUMBUS       CLEAR     39  25  56 E3        30.04R
ALBION         CLEAR     41  26  55 SE3       30.01R
OMAHA EPPLEY   CLEAR     43  26  51 CALM      30.03S
OFFUTT AFB     CLEAR     35  31  84 CALM      30.03R
MILLARD        CLEAR     41  29  61 CALM      30.03S
LINCOLN        CLEAR     42  29  59 CALM      30.05R
NEBRASKA CITY  CLEAR     47  11  23 CALM      30.04R
BEATRICE       CLEAR     43  28  54 CALM      30.04S
FALLS CITY     CLEAR     46  24  42 S3        30.05R

...NORTHERN KANSAS...

CITY           SKY/WX    TMP DP  RH WIND       PRES   REMARKS
GOODLAND       MOCLDY    45  36  70 SE10      29.95S
HILL CITY      PTCLDY    45  36  70 E6        30.00S
NORTON         CLEAR     45  28  53 E10       29.98S
PHILLIPSBURG   CLEAR     46  32  57 E8        30.01S
SMITH CENTER   CLEAR     39  28  65 E10       30.02F WCI  32
BELOIT         PTCLDY    45  30  57 E7        30.03S
HAYS           CLOUDY    46  30  53 E7        30.01S
RUSSELL        CLEAR     46  32  58 E10       30.00F
CONCORDIA        N/A    N/A N/A N/A MISG      30.03F
SALINA         CLEAR     48  31  51 SE6       30.05R
TOPEKA         CLEAR     42  35  76 CALM      30.07R



USA.gov is the U.S. government's official web portal to all federal, state and local government web resources and services.